This demonstration page uses our WeatherBlox Daily Observations layout. Learn more.

Hourly Observations for August 7, 2019

Temp ( °F °C ) Dew Point ( °F °C ) Humidity (%) Winds ( mph kmh ) Pressure ( in mb ) Visibility ( mi km ) Precip ( " mm )
12:15 am 00:15 Clear 74 23.2 71 21.7 91 91 SSE 9 15 29.8 1009 10 16.09344 0 0
12:35 am 00:35 Clear 74 23.3 71 21.6 90 90 SE 8 13 29.8 1009 10 16.09344 0 0
12:55 am 00:55 Clear 73 23 71 21.5 91 91 SE 5 7 29.8 1009 10 16.09344 0 0
1:15 am 01:15 Clear 73 22.8 71 21.5 92 92 ESE 7 11 29.8 1009 10 16.09344 0 0
1:35 am 01:35 Clear 73 23 71 21.5 91 91 SE 9 15 29.8 1009 10 16.09344 0 0
1:55 am 01:55 Clear 73 22.6 71 21.5 94 94 SSE 9 15 29.77 1008 10 16.09344 0 0
2:15 am 02:15 Clear 72 22.1 70 21.3 95 95 S 8 13 29.8 1009 10 16.09344 0 0
2:35 am 02:35 Clear 71 21.8 70 21 95 95 Calm 29.8 1009 10 16.09344 0 0
2:55 am 02:55 Clear 70 21.3 69 20.7 96 96 Calm 29.8 1009 10 16.09344 0 0
3:15 am 03:15 Clear 70 21 69 20.4 96 96 ENE 5 7 29.8 1009 10 16.09344 0 0
3:35 am 03:35 Partly Cloudy 70 21.3 69 20.5 95 95 ESE 6 9 29.83 1010 10 16.09344 0 0
3:55 am 03:55 Mostly Cloudy 71 21.7 68 20 90 90 ESE 13 20 29.85 1011 10 16.09344 0 0
4:15 am 04:15 Mostly Cloudy 70 21.3 67 19.2 88 88 E 13 20 29.85 1011 10 16.09344 0 0
4:35 am 04:35 Partly Cloudy 66 19.1 62 16.7 86 86 E 16 26 29.91 1013 10 16.09344 0 0
4:55 am 04:55 Mostly Cloudy 65 18.4 61 16.2 87 87 ESE 12 19 29.91 1013 10 16.09344 0 0
5:15 am 05:15 Partly Cloudy 64 18 60 15.7 87 87 E 10 17 29.91 1013 10 16.09344 0 0
5:35 am 05:35 Partly Cloudy 64 17.7 60 15.5 87 87 ESE 8 13 29.88 1012 10 16.09344 0 0
5:55 am 05:55 Clear with Nearby Thunderstorms 64 17.6 60 15.5 88 88 ESE 6 9 29.88 1012 10 16.09344 0 0
6:15 am 06:15 Clear 64 17.8 60 15.5 86 86 ESE 6 9 29.88 1012 10 16.09344 0 0
6:35 am 06:35 Clear 64 17.6 60 15.5 88 88 ESE 3 6 29.88 1012 10 16.09344 0 0
6:55 am 06:55 Sunny with Thunderstorms 64 17.5 61 15.9 90 90 NE 5 7 29.91 1013 10 16.09344 0 0
7:15 am 07:15 Partly Cloudy with Nearby Thunderstorms 63 17.4 61 16.2 93 93 N 17 28 29.97 1015 10 16.09344 0 0
7:35 am 07:35 Partly Cloudy 65 18.3 61 16 87 87 NE 12 19 29.97 1015 10 16.09344 0 0
7:55 am 07:55 Sunny 66 18.7 62 16.5 87 87 ESE 9 15 29.94 1014 10 16.09344 0 0
8:15 am 08:15 Sunny 67 19.4 62 16.6 84 84 SE 8 13 29.91 1013 10 16.09344 0 0
8:35 am 08:35 Sunny 69 20.3 62 16.7 80 80 SE 12 19 29.85 1011 10 16.09344 0 0
8:55 am 08:55 Sunny 69 20.3 62 16.8 80 80 SSE 9 15 29.85 1011 10 16.09344 0 0
9:15 am 09:15 Mostly Cloudy with Light Rain 69 20.5 63 17.1 81 81 ESE 12 19 29.83 1010 10 16.09344 0 0
9:35 am 09:35 Partly Cloudy 70 21 64 17.6 81 81 SSE 10 17 29.85 1011 10 16.09344 0 0
9:55 am 09:55 Sunny 72 22.4 64 17.7 75 75 S 8 13 29.88 1012 10 16.09344 0 0
10:15 am 10:15 Sunny 73 22.6 64 17.7 74 74 S 8 13 29.88 1012 10 16.09344 0 0
10:35 am 10:35 Sunny 73 23 63 17.4 71 71 S 9 15 29.83 1010 10 16.09344 0 0
10:55 am 10:55 Sunny 74 23.5 64 18 71 71 S 7 11 29.83 1010 10 16.09344 0 0
11:15 am 11:15 Sunny with Light Rain 73 22.9 64 17.9 74 74 WSW 9 15 29.91 1013 10 16.09344 0 0
11:35 am 11:35 Partly Cloudy with Light Rain 73 22.5 65 18.2 77 77 SE 8 13 29.88 1012 10 16.09344 0 0
11:55 am 11:55 Partly Cloudy 72 22.3 65 18.2 78 78 SSE 8 13 29.88 1012 10 16.09344 0 0
12:15 pm 12:15 Sunny 74 23.1 65 18.4 75 75 SW 8 13 29.85 1011 10 16.09344 0 0
12:35 pm 12:35 Sunny 75 23.9 65 18.3 71 71 S 5 7 29.85 1011 10 16.09344 0 0
12:55 pm 12:55 Sunny 76 24.4 65 18.5 70 70 S 7 11 29.85 1011 10 16.09344 0 0
1:15 pm 13:15 Sunny 79 25.9 66 18.8 65 65 SSW 10 17 29.85 1011 10 16.09344 0 0
1:35 pm 13:35 Sunny 78 25.7 66 18.9 66 66 SSW 5 7 29.85 1011 10 16.09344 0 0
1:55 pm 13:55 Sunny 80 26.9 65 18.5 60 60 Calm 29.83 1010 10 16.09344 0 0
2:15 pm 14:15 Sunny 82 27.8 66 18.8 58 58 SSW 6 9 29.83 1010 10 16.09344 0 0
2:35 pm 14:35 Sunny 83 28.5 66 18.7 55 55 SW 5 7 29.83 1010 10 16.09344 0 0
2:55 pm 14:55 Sunny 83 28.6 66 18.9 56 56 S 5 7 29.83 1010 10 16.09344 0 0
3:15 pm 15:15 Sunny 84 28.9 66 19.1 55 55 SW 6 9 29.8 1009 10 16.09344 0 0
3:35 pm 15:35 Sunny 85 29.6 67 19.3 54 54 SSW 9 15 29.8 1009 10 16.09344 0 0
3:55 pm 15:55 Sunny 86 29.9 66 19 52 52 SW 5 7 29.8 1009 10 16.09344 0 0
4:15 pm 16:15 Sunny 86 29.9 66 19.1 52 52 SSW 6 9 29.8 1009 10 16.09344 0 0
4:35 pm 16:35 Sunny 86 30.1 66 19.1 52 52 SE 3 6 29.77 1008 10 16.09344 0 0
4:55 pm 16:55 Sunny 86 30.1 65 18.1 49 49 SSE 6 9 29.77 1008 10 16.09344 0 0
5:15 pm 17:15 Sunny 86 30.2 66 19.1 51 51 S 7 11 29.77 1008 10 16.09344 0 0
5:35 pm 17:35 Sunny 87 30.3 66 18.8 50 50 SSE 8 13 29.74 1007 10 16.09344 0 0
5:55 pm 17:55 Sunny 86 30.1 64 17.6 47 47 SSE 7 11 29.74 1007 10 16.09344 0 0
6:15 pm 18:15 Sunny 86 30 65 18.2 49 49 S 6 9 29.74 1007 10 16.09344 0 0
6:35 pm 18:35 Sunny 85 29.5 66 18.7 52 52 SSE 5 7 29.77 1008 10 16.09344 0 0
6:55 pm 18:55 Sunny 84 29 67 19.2 55 55 SSE 3 6 29.77 1008 10 16.09344 0 0
7:15 pm 19:15 Sunny 84 28.9 67 19.2 56 56 ESE 6 9 29.77 1008 10 16.09344 0 0
7:35 pm 19:35 Sunny 83 28.1 66 18.9 57 57 ESE 6 9 29.77 1008 10 16.09344 0 0
7:55 pm 19:55 Sunny 82 27.9 69 20.3 63 63 SE 6 9 29.77 1008 10 16.09344 0 0
8:15 pm 20:15 Sunny 80 26.6 69 20.6 70 70 SE 5 7 29.8 1009 10 16.09344 0 0
8:35 pm 20:35 Sunny 78 25.5 69 20.7 75 75 SE 5 7 29.83 1010 10 16.09344 0 0
8:55 pm 20:55 Clear 75 23.8 69 20.6 82 82 E 5 7 29.83 1010 10 16.09344 0 0
9:15 pm 21:15 Clear 75 24 70 21 83 83 E 5 7 29.83 1010 10 16.09344 0 0
9:35 pm 21:35 Clear 76 24.4 70 21 81 81 ESE 7 11 29.83 1010 10 16.09344 0 0
9:55 pm 21:55 Clear 74 23.1 70 21.1 89 89 ENE 5 7 29.85 1011 10 16.09344 0 0
10:15 pm 22:15 Clear 73 22.7 70 21 90 90 E 6 9 29.88 1012 10 16.09344 0 0
10:35 pm 22:35 Clear 75 23.8 70 21.1 85 85 ESE 3 6 29.85 1011 10 16.09344 0 0
10:55 pm 22:55 Clear 75 24 70 21.3 85 85 ESE 3 6 29.85 1011 10 16.09344 0 0
11:15 pm 23:15 Clear 74 23.6 71 21.4 88 88 ESE 5 7 29.85 1011 10 16.09344 0 0
11:35 pm 23:35 Clear 74 23.1 70 21.3 90 90 ESE 5 7 29.85 1011 10 16.09344 0 0
11:55 pm 23:55 Clear 73 22.7 70 21.1 91 91 ESE 5 7 29.88 1012 10 16.09344 0 0

Powered by AerisWeather